Das Wetter in  D-61279 Heinzenberg / Taunus





Wetter Minimum- & Maximum-Werte im Dezember 2011

Standort: Heinzenberg / Taunus - Höhe 297 m         8 24' 1" Ost 50 21' 51" Nord
(   3-stündige Aktualisierung    letzte Aktualisierung um 19:04 am 31.12.2011  )


Messgrösse

Minimum

Maximum

Durchschnitt

Temperatur West /
Luftfeuchte West
Anklicken für Monats-Diagramm

-3,7 C

06:24
11.12.2011

66 %

14:43
10.12.2011

11,1 C

02:35
02.12.2011

99 %

05:14
01.12.2011

Temp

4,0 C

Feuchte

91 %

Temperatur Ost /
Luftfeuchte Ost
Anklicken für Monats-Diagramm

-3,3 C

06:34
11.12.2011

--

--
--

11,6 C

02:50
02.12.2011

--

--
--

4,2 C

--

Luftdruck Anklicken für Monats-Diagramm

970,4 hPa

12:54
16.12.2011

1038,0 hPa

10:14
26.12.2011

1014,4 hPa

Taupunkt

-4,5 C

06:24
11.12.2011

8,7 C

23:10
31.12.2011

2,7 C

Windchill
( gefühlte Temperatur )

-14,9 C

04:12
30.12.2011

9,3 C

13:49
01.12.2011

-2,6 C

Windgeschwindigkeit /
Windrichtung
Anklicken für Monats-Diagramm

---

67,2 km/h / W-SW

15:35
07.12.2011

17,6 km/h
W-SW

Helligkeit /
Sonnenschein
Anklicken für Monats-Diagramm
Anklicken für Monats-Diagramm

Sonnenschein:

22:56 Stunden

Max: 5:05 Std am
10.12.2011

48,7 klux

12:53
05.12.2011

6,4 klux

Solarstrahlung Anklicken für Monats-Diagramm

---

333 W/m

12:53
05.12.2011

49 W/m

Regenmenge
    Dezember 2011
Anklicken für Monats-Diagramm

Insgesamt 81,6 l/m

in 113:48 Stunden
an 29 Tagen

23,1 l/m

08:37
04.12.2011

Gesamtmenge

81,6 l/m

Regen-Tage
    Dezember 2011
Anklicken für Monats-Diagramm

>   0 mm/Tag

>   2 mm/Tag

>   5 mm/Tag

> 10 mm/Tag

> 20 mm/Tag

29 Tage     
14 Tage     
5 Tage     
  1 Tag     
  1 Tag     

Eisige Tage Dezember 2011 / 2010

Tmin ≤ -10C     

0 Tage

/

5 Tage

Eistage Dezember 2011 / 2010

Tmax <     0C     

0 Tage

/

18 Tage

Frosttage Dezember 2011 / 2010

Tmin ≤     0C     

7 Tage

/

30 Tage

Kalte Tage Dezember 2011 / 2010

Tmax <   10C     

28 Tage

/

31 Tage

Warme Tage Dezember 2011 / 2010

Tmax ≥   20C     

0 Tage

/

0 Tage

Sommertage Dezember 2011 / 2010

Tmax ≥   25C     

0 Tage

/

0 Tage

Heisse Tage Dezember 2011 / 2010

Tmax ≥   30C     

0 Tage

/

0 Tage


Monatsdiagramm Dezember 2011

Die Kurven zeigen den Durchschnittswert des jeweiligen Tages an


Wetter-Monatsübersicht Dezember 2011
Datum
  Temperatur
   Luftdruck
   Wind
  Regen
   Luftfeuchte
   Helligkeit

Sonnen-
schein


Temp.

Min.
Temp.

Max.
Temp.


Luftdruck

Min.
Luftdruck

Max.
Luftdruck

-Geschw.
Haupt-Richtg.

Max.
Wind

Menge /
Dauer


Feuchte

Min.
Feuchte

Max.
Feuchte


Helligkeit

Max.
Helligkeit

1.
Dezember
5,6 C-2,1 C
06:44
10,8 C
22:04
1018,4 hPa1011,6 hPa
22:39
1027,8 hPa
00:04
17,8 km/h
W-SW
46,5 km/h
21:49  
---
1:25 Stunden
91 %81 %
21:59
99 %
05:14
7,34 klux39,20 klux
13:24
40 Min 
2.
Dezember
7,2 C0,0 C
23:51
11,1 C
02:35
1012,7 hPa1008,5 hPa
03:25
1018,2 hPa
23:51
17,3 km/h
W-SW
46,2 km/h
11:35  
0,3 l/m
2:34 Stunden
87 %77 %
03:05
96 %
22:36
3,6 klux14,7 klux
09:50
5 Min 
3.
Dezember
4,5 C-0,2 C
00:01
7,3 C
21:26
1010,3 hPa1004,9 hPa
16:26
1018,2 hPa
00:01
21,0 km/h
W-SW
45,2 km/h
13:01  
3,8 l/m
6:35 Stunden
94 %90 %
04:41
98 %
19:46
3,2 klux11,8 klux
10:06
--- 
4.
Dezember
7,0 C5,1 C
23:43
8,2 C
08:07
1002,0 hPa994,6 hPa
22:38
1006,9 hPa
00:32
17,2 km/h
W-SW
41,4 km/h
08:47  
23,1 l/m
10:13 Stunden
94 %85 %
01:07
99 %
20:22
4,8 klux16,0 klux
10:37
--- 
5.
Dezember
3,1 C0,3 C
20:08
5,2 C
00:03
1004,1 hPa993,7 hPa
00:48
1008,8 hPa
20:08
25,1 km/h
W
43,4 km/h
14:28  
6,1 l/m
6:30 Stunden
89 %73 %
15:48
99 %
02:18
14,4 klux48,7 klux
12:53
3:00 Std 
6.
Dezember
2,8 C1,5 C
00:04
5,6 C
15:44
1008,6 hPa1007,2 hPa
14:09
1011,6 hPa
23:05
24,6 km/h
W
38,0 km/h
13:59  
---
85 %72 %
15:49
97 %
00:04
8,9 klux45,4 klux
12:44
1:15 Std 
7.
Dezember
3,5 C1,6 C
02:50
5,8 C
12:10
1006,9 hPa1000,8 hPa
12:10
1013,5 hPa
23:26
27,6 km/h
W-SW
67,2 km/h
15:35  
9,6 l/m
8:25 Stunden
91 %77 %
23:51
98 %
09:25
5,5 klux45,2 klux
11:55
35 Min 
8.
Dezember
4,9 C2,7 C
08:26
8,6 C
23:47
1018,5 hPa1009,8 hPa
23:47
1025,0 hPa
10:11
27,9 km/h
W-SW
53,9 km/h
23:47  
---
20 Minuten
79 %70 %
03:11
85 %
16:41
10,4 klux25,3 klux
13:21
55 Min 
9.
Dezember
5,1 C1,0 C
20:07
10,0 C
05:17
1010,6 hPa1005,5 hPa
05:17
1013,9 hPa
20:22
24,7 km/h
W-SW
62,2 km/h
01:22  
6,4 l/m
3:50 Stunden
86 %70 %
14:57
96 %
06:27
14,7 klux41,7 klux
12:27
3:45 Std 
10.
Dezember
2,0 C-2,0 C
23:59
4,8 C
13:48
1016,1 hPa1012,6 hPa
01:13
1019,5 hPa
23:59
13,5 km/h
W-SW
28,7 km/h
02:48  
---
25 Minuten
84 %66 %
14:43
94 %
03:28
17,4 klux45,4 klux
12:28
5:05 Std 
11.
Dezember
-0,4 C-3,7 C
06:24
4,0 C
23:45
1017,3 hPa1010,4 hPa
23:55
1020,6 hPa
02:29
1,1 km/h
W-SW
21,6 km/h
23:50  
0,2 l/m
35 Minuten
88 %74 %
15:44
96 %
09:59
13,0 klux34,8 klux
11:04
2:50 Std 
12.
Dezember
4,9 C2,9 C
22:45
6,5 C
07:35
1009,5 hPa1004,9 hPa
07:35
1015,7 hPa
20:30
17,8 km/h
W-SW
36,5 km/h
06:05  
2,6 l/m
4:41 Stunden
92 %85 %
18:05
96 %
10:50
4,0 klux18,3 klux
14:05
5 Min 
13.
Dezember
5,1 C3,2 C
00:00
7,6 C
14:30
1004,6 hPa999,6 hPa
14:30
1014,6 hPa
00:00
28,9 km/h
W-SW
65,8 km/h
11:55  
2,9 l/m
2:01 Stunden
86 %80 %
06:05
96 %
19:05
3,2 klux14,6 klux
11:40
--- 
14.
Dezember
5,2 C2,3 C
18:47
8,0 C
10:57
1003,6 hPa998,5 hPa
12:02
1009,4 hPa
22:43
23,1 km/h
W-SW
56,4 km/h
14:12  
2,7 l/m
3:30 Stunden
88 %77 %
12:17
96 %
20:27
5,1 klux31,2 klux
14:37
35 Min 
15.
Dezember
4,1 C3,1 C
05:43
5,4 C
13:53
1006,6 hPa1005,1 hPa
22:33
1008,4 hPa
01:58
24,9 km/h
W-SW
53,2 km/h
16:38  
1,2 l/m
3:05 Stunden
88 %84 %
11:53
95 %
07:13
9,8 klux31,8 klux
10:38
1:45 Std 
16.
Dezember
4,5 C1,2 C
23:50
9,3 C
12:44
984,3 hPa970,4 hPa
12:54
1005,1 hPa
00:04
31,9 km/h
W
56,2 km/h
14:09  
6,1 l/m
11:10 Stunden
92 %79 %
13:59
98 %
21:14
2,3 klux9,3 klux
11:59
--- 
17.
Dezember
1,9 C0,4 C
23:26
3,9 C
13:00
1002,5 hPa992,1 hPa
00:00
1008,8 hPa
23:36
19,3 km/h
W
36,3 km/h
13:50  
0,2 l/m
2:35 Stunden
93 %86 %
13:00
98 %
00:15
7,8 klux35,0 klux
11:50
45 Min 
18.
Dezember
0,7 C-0,9 C
23:57
1,2 C
01:36
1010,9 hPa1006,6 hPa
02:36
1017,2 hPa
23:57
12,5 km/h
W
27,8 km/h
03:56  
1,8 l/m
4:55 Stunden
95 %90 %
00:01
99 %
18:26
4,0 klux15,3 klux
13:11
--- 
19.
Dezember
-0,1 C-2,3 C
02:57
1,5 C
14:07
1018,4 hPa1016,4 hPa
01:42
1020,2 hPa
10:32
3,9 km/h
W-SW
19,8 km/h
22:43  
---
92 %89 %
21:27
96 %
08:17
8,0 klux36,6 klux
12:17
25 Min 
20.
Dezember
0,7 C-0,9 C
06:43
2,7 C
23:29
1011,7 hPa1008,7 hPa
13:48
1017,1 hPa
00:03
12,4 km/h
W
32,9 km/h
23:09  
2,3 l/m
4:30 Stunden
95 %88 %
00:33
99 %
17:38
3,9 klux10,9 klux
12:08
--- 
21.
Dezember
2,5 C1,4 C
07:14
3,1 C
13:14
1018,4 hPa1015,7 hPa
00:04
1021,9 hPa
22:40
12,1 km/h
W
27,0 km/h
05:49  
0,3 l/m
3:45 Stunden
97 %94 %
13:29
99 %
06:14
3,5 klux10,0 klux
13:04
--- 
22.
Dezember
5,2 C2,8 C
02:20
8,0 C
23:36
1022,6 hPa1021,4 hPa
16:25
1025,4 hPa
22:51
4,7 km/h
W
16,2 km/h
17:25  
2,6 l/m
6:10 Stunden
98 %96 %
00:00
99 %
09:55
2,4 klux5,7 klux
13:20
--- 
23.
Dezember
7,3 C5,7 C
21:56
8,3 C
13:01
1021,7 hPa1014,3 hPa
23:57
1025,5 hPa
03:21
11,4 km/h
W-SW
26,8 km/h
21:01  
0,2 l/m
1:15 Stunden
97 %94 %
15:06
99 %
00:01
4,37 klux12,70 klux
12:01
--- 
24.
Dezember
3,9 C1,9 C
22:53
6,0 C
01:27
1023,2 hPa1011,2 hPa
03:07
1032,4 hPa
22:53
22,4 km/h
W
55,1 km/h
04:17  
2,7 l/m
5:50 Stunden
93 %87 %
12:47
98 %
04:07
5,4 klux20,2 klux
10:47
10 Min 
25.
Dezember
4,0 C2,2 C
01:08
5,8 C
22:54
1033,4 hPa1031,2 hPa
07:58
1036,1 hPa
20:53
17,4 km/h
W-SW
29,1 km/h
21:43  
---
1:20 Stunden
95 %91 %
00:33
99 %
20:34
3,6 klux11,1 klux
11:18
--- 
26.
Dezember
7,0 C5,9 C
00:04
8,0 C
14:49
1037,1 hPa1035,9 hPa
05:24
1038,0 hPa
10:14
11,9 km/h
W-SW
26,3 km/h
11:24  
---
5 Minuten
95 %93 %
14:49
98 %
23:10
3,5 klux12,1 klux
12:14
--- 
27.
Dezember
7,0 C6,1 C
23:16
7,5 C
12:45
1036,8 hPa1035,0 hPa
22:00
1038,0 hPa
09:20
2,5 km/h
W-SW
14,3 km/h
08:10  
---
20 Minuten
97 %93 %
20:25
99 %
05:30
2,8 klux6,6 klux
12:55
--- 
28.
Dezember
4,3 C3,1 C
19:56
6,1 C
00:01
1027,4 hPa1021,8 hPa
22:37
1035,0 hPa
00:01
12,3 km/h
W-SW
28,3 km/h
22:47  
0,2 l/m
30 Minuten
95 %92 %
00:46
98 %
08:21
3,24 klux6,94 klux
12:46
--- 
29.
Dezember
3,9 C3,0 C
17:47
5,5 C
14:42
1020,2 hPa1008,2 hPa
23:47
1023,9 hPa
05:02
29,0 km/h
W
53,0 km/h
23:27  
0,8 l/m
3:30 Stunden
86 %68 %
14:47
96 %
00:02
6,64 klux28,50 klux
14:07
30 Min 
30.
Dezember
2,4 C0,9 C
07:32
4,4 C
00:22
1013,2 hPa1007,4 hPa
03:52
1017,9 hPa
23:44
23,7 km/h
W
63,6 km/h
04:12  
2,3 l/m
6:55 Stunden
94 %89 %
05:07
98 %
01:12
6,2 klux36,1 klux
13:27
31 Min 
31.
Dezember
3,6 C0,8 C
05:39
8,9 C
23:55
1013,7 hPa1011,4 hPa
14:39
1016,9 hPa
00:54
5,2 km/h
W-SW
23,5 km/h
23:05  
3,5 l/m
6:49 Stunden
96 %87 %
02:39
99 %
17:04
3,8 klux8,3 klux
11:44
--- 



Dezember
2011

Temperatur

  

Luftdruck

  

Wind

  

Regen

  

Luftfeuchte

  

Helligkeit

Sonnen-
schein

Min

Max

Min

Max

Max

Max

Min

Max

Max

Max

4,0 C

-3,7 C

06:24 Uhr
11.12.2011

11,1 C

02:35 Uhr
02.12.2011

1014,4 hPa

970,4 hPa

12:54 Uhr
16.12.2011

1038,0 hPa

10:14 Uhr
26.12.2011

17,6 km/h

W-SW

67,2 km/h

15:35 Uhr
07.12.2011

23,1 l/m

10:13 Stunden
04.12.2011

91 %

66 %

14:43 Uhr
10.12.2011

99 %

05:14 Uhr
01.12.2011

6,36 klux

48,70 klux

12:53 Uhr
05.12.2011

5:05 Std

am
10.12.2011

Gesamt

Gesamt

81,6 l/m

29 Tage
113:48 h

22:56 Std


Wetter-Diagramme Dezember 2011     Heinzenberg / Taunus   
TemperaturLuftfeuchte
SolarstrahlungLuftdruck
HelligkeitSonnenschein
RegenmengeRegendauer
Wind-GeschwindigkeitWind-Richtung